MST,Max TemperatureF,Mean TemperatureF,Min TemperatureF,Max Dew PointF,MeanDew PointF,Min DewpointF,Max Humidity, Mean Humidity, Min Humidity, Max Sea Level PressureIn, Mean Sea Level PressureIn, Min Sea Level PressureIn, Max VisibilityMiles, Mean VisibilityMiles, Min VisibilityMiles, Max Wind SpeedMPH, Mean Wind SpeedMPH, Max Gust SpeedMPH,PrecipitationIn, CloudCover, Events, WindDirDegrees
2012-11-1,76,52,28,26,20,13,63,36,9,30.14,29.95,29.79,10,10,4,13,5,15,0.00,0,,259
2012-11-2,68,51,34,23,19,13,54,35,15,30.13,29.95,29.81,10,10,2,18,6,22,0.00,0,,359
2012-11-3,60,42,24,30,24,19,75,52,29,30.26,30.17,30.09,10,10,10,13,3,13,0.00,0,,273
2012-11-4,70,49,27,23,19,10,69,40,10,30.26,30.16,30.05,10,10,10,15,6,23,0.00,0,,346
2012-11-5,64,45,26,27,23,17,63,44,25,30.32,30.19,30.07,10,10,10,8,3,10,0.00,0,,276
2012-11-6,66,48,29,29,25,20,63,44,24,30.27,30.18,30.12,10,10,10,15,6,18,0.00,0,,153
2012-11-7,74,51,28,26,22,18,69,42,14,30.15,29.98,29.84,10,10,10,14,6,16,0.00,0,,260
2012-11-8,70,52,33,24,18,14,52,33,13,29.95,29.80,29.70,10,10,10,15,7,16,0.00,0,,96
2012-11-9,74,55,35,32,24,19,54,34,13,29.70,29.61,29.50,10,10,10,23,6,29,0.00,0,,237
2012-11-10,63,45,27,38,20,-4,56,34,11,29.75,29.50,29.34,10,9,2,44,16,52,0.00,1,,230
2012-11-11,37,30,22,21,15,-2,75,50,25,30.27,30.05,29.78,10,9,2,18,9,23,T,4,Snow,111
2012-11-12,53,31,9,2,-2,-7,58,34,9,30.45,30.33,30.24,10,10,10,22,7,28,0.00,0,,80
2012-11-13,61,42,23,14,7,-3,50,31,12,30.36,30.23,30.11,10,10,10,23,5,28,0.00,0,,18
2012-11-14,55,35,15,19,11,5,67,43,19,30.34,30.22,30.10,10,10,10,10,3,12,0.00,0,,261
2012-11-15,54,38,21,30,20,6,63,49,35,30.43,30.35,30.17,10,10,10,13,4,15,0.00,1,,129
2012-11-16,57,38,18,25,18,12,73,49,25,30.38,30.24,30.11,10,10,10,9,3,12,0.00,0,,322
2012-11-17,69,48,26,21,18,15,63,39,14,30.15,30.04,29.94,10,10,10,20,8,22,0.00,0,,247
2012-11-18,68,48,27,23,17,12,54,35,15,30.07,29.97,29.88,10,10,10,16,7,23,0.00,0,,259
2012-11-19,65,47,28,19,16,13,53,35,16,30.24,30.17,30.04,10,10,9,16,6,20,0.00,0,,358
2012-11-20,69,47,24,17,13,8,60,36,11,30.30,30.17,30.05,10,10,10,15,5,16,0.00,0,,269
2012-11-21,74,49,24,17,10,4,50,29,8,30.06,29.93,29.78,10,10,2,17,7,20,0.00,0,,266
2012-11-22,68,46,24,25,11,3,47,28,9,30.46,30.07,29.77,10,10,10,26,9,32,0.00,0,,16
2012-11-23,49,33,17,13,8,3,61,41,21,30.61,30.47,30.29,10,10,10,9,3,13,0.00,0,,154
2012-11-24,74,45,15,13,4,-1,62,34,6,30.30,30.04,29.88,10,10,9,25,8,31,0.00,0,,268
2012-11-25,62,42,21,13,6,-2,37,25,12,29.96,29.87,29.76,10,10,10,16,5,18,0.00,0,,38
2012-11-26,40,29,18,25,21,15,84,63,41,30.42,30.28,29.98,10,10,6,15,6,20,0.00,4,,104
2012-11-27,65,40,15,21,7,-12,92,48,4,30.36,30.24,30.09,10,9,2,28,7,35,0.00,3,,281
2012-11-28,56,34,11,5,-1,-10,41,27,12,30.33,30.19,30.08,10,10,9,12,3,13,0.00,0,,26
2012-11-29,69,46,23,22,12,3,42,28,14,30.09,30.00,29.89,10,10,10,18,5,21,0.00,0,,281
2012-11-30,64,44,24,21,15,7,50,35,19,30.10,29.94,29.82,10,10,10,13,3,14,0.00,0,,275